RADUGA 1M-3 DEB

基本信息
目录编号:
55000
目录名称:
RADUGA 1M-3 DEB
国际标识:
2013-062D
轨道中心:
EARTH
物体状态:
在轨
发射日期:
2013-11-11 UTC
轨道信息
数据来源: 国际轨道数据
星历时间: 2025-10-11T21:43:48+0800
半长轴: 42124.576km
偏心率: 0.0123325
轨道倾角: 5.479°
近地点辐角: 152.034°
升交点赤经: 74.392°
平近点角: 208.729°
近地点: 35226.939km
远地点: 36265.943km
周期: 1434.046分钟
每日圈数: 1.004152
详细信息
发射场:
TTMTR
轨道高度:
MEO
数据来源:
AOE Integration Group
参考系:
TEME
时间系统:
UTC
历元类型:
SGP4
2D轨道图
3D轨道图
轨道高度分析图
轨道倾角分析图
轨道综合分析图
查看轨道综合分析图